map of NOV home
NOV - Airport
Location
City:  Huambo, Huambo, Angola
Name:Albano Machado
Old (Alt.):Nova Lisboa
ICAO:FNHU
IATA:NOV

Details
Type:Airport (Aerodrome, Airfield)
Latitude:1248'32"S (-12.808877)
Longitude:1545'38"E (15.760547)
Datum:WGS 1984
Elevation:5587 ft (1703 m)
Variation:4.32W (WMM2015 magnetic declination)
0.17 annual change
Runways:1
Longest:8727 × 148 ft (2660 × 45 m), paved

Time
Time Zone:UTC+1
Local Time:

Weather
METAR:FNHU 111600Z 24007KT 6000 +TSRA BKN013 FEW030CB 16/14 Q1021
TAF:FNHU 111505Z 1112/1124 28008KT 8000 FEW010 BKN040
TEMPO 1113/1117 22010KT 4000 TSRA SCT014 BKN020 FEW023CB
BECMG 1122/0411 VRB03KT SCT018

Related Locations
Nearby:
Farthest:PLPA: 11933 mi / 19204 km
Palmyra Island Atoll [Palmyra Airport (Cooper)], UM

Find:

   beyond  
but within

Other Information
Maps:
NOTAMs:
Links:
Sources:

  
  • flag of Angola
  

Sectional Chart

Flight Planning
at skyvector.com

Satellite Image

Google Maps Satellite view

 

Copyright © 2004-2018 Karl L. Swartz. All rights reserved.
The Great Circle Mapper name and logo are trademarks of the Great Circle Mapper.
All other trademarks mentioned herein belong to their respective owners.
Please see credits for attibutions and further copyright information.

  Follow gcmap on Facebook Follow gcmap on Twitter Follow gcmap on Google+ GCmap on LinkedIn

hCard Microformat

Geo Microformat